Location: Poprad
(49.0500°N, 20.3000°E)
Time: 09:08:19
(UTC+02:00)

Oscar 11 - Pass Details

Date: 23 April 2024
Orbit: 602 x 614 km, 97.7° (Epoch: 19 May)

Event Time Altitude Azimuth Distance (km) Brightness Sun altitude
Rises 04:49:13 0° 12° (NNE) 2,896 11.1 -7.1°
Reaches altitude 10° 04:51:25 10° 11° (N) 1,984 10.3 -6.8°
Maximum altitude 04:55:43 77° 286° (WNW) 635 7.0 -6.2°
Drops below altitude 10° 04:59:59 10° 201° (SSW) 1,961 9.2 -5.6°
Sets 05:02:09 0° 199° (SSW) 2,858 10.0 -5.3°
